Midland, MI

1:06 PM EDT on July 28, 2017 (GMT -0400)
Barstow

Weather History for KIKW - March, 2014

Change the Weather History Date:

Tuesday, March 11, 2014

  Actual Average (KMBS) Record (KMBS)
Temperature  
Mean Temperature 42 °F -  
Max Temperature 52 °F 34 °F 64 °F (2012)
Min Temperature 33 °F 20 °F 7 °F (1998)
Degree Days  
Heating Degree Days 22    
Moisture  
Dew Point 31 °F    
Average Humidity 68    
Maximum Humidity 96    
Minimum Humidity 42    
Precipitation  
Precipitation 0.00 in - - ()
Sea Level Pressure  
Sea Level Pressure 29.66 in    
Wind  
Wind Speed 2 mph (NNW)    
Max Wind Speed 13 mph    
Max Gust Speed -    
Visibility 10 miles    
Events      
Averages and records for this station are not official NWS values.
T = Trace of Precipitation, MM = Missing Value Source: NWS Daily Summary

Daily Weather History Graph

Daily Weather History Graph

Search for Another Location

Airport or City:

Trip Planner

Search our weather history database for the weather conditions in past years. The results will help you decide how hot, cold, wet, or windy it might be!

Date:

Astronomy

Mar. 11, 2014 Rise Set
Actual Time 7:56 AM EDT 7:38 PM EDT
Civil Twilight 7:27 AM EDT 8:06 PM EDT
Nautical Twilight 6:54 AM EDT 8:40 PM EDT
Astronomical Twilight 6:20 AM EDT 9:14 PM EDT
Moon 3:07 PM EDT (3/11) 4:56 AM EDT (3/11)
Length of Visible Light 12h 39m
Length of Day
11h 42m
Waxing Gibbous, 78% of the Moon is Illuminated
Mar 11
Waxing Gibbous
Mar 16
Full
Mar 23
Last Quarter
Mar 30
New
Apr 7
First Quarter

Hourly Weather History & Observations

Time (EDT) Temp. Windchill Dew Point Humidity Pressure Visibility Wind Dir Wind Speed Gust Speed Precip Events Conditions
12:13 AM 41.9 °F - 32.9 °F 70% 29.58 in 10.0 mi Calm Calm - N/A   Clear
12:33 AM 38.5 °F - 32.2 °F 78% 29.57 in 10.0 mi Calm Calm - N/A   Clear
12:53 AM 39.4 °F 37.2 °F 32.4 °F 76% 29.58 in 10.0 mi South 3.5 mph - N/A   Clear
1:13 AM 38.5 °F - 32.4 °F 79% 29.58 in 10.0 mi Calm Calm - N/A   Clear
1:33 AM 38.5 °F - 32.4 °F 79% 29.59 in 10.0 mi Calm Calm - N/A   Clear
1:53 AM 38.7 °F - 32.2 °F 78% 29.59 in 10.0 mi Calm Calm - N/A   Clear
2:13 AM 39.2 °F - 32.4 °F 76% 29.60 in 10.0 mi Calm Calm - N/A   Scattered Clouds
2:33 AM 39.2 °F - 32.5 °F 77% 29.60 in 10.0 mi Calm Calm - N/A   Scattered Clouds
2:53 AM 39.2 °F - 32.5 °F 77% 29.60 in 10.0 mi Calm Calm - N/A   Scattered Clouds
3:13 AM 39.2 °F - 32.7 °F 78% 29.60 in 10.0 mi Calm Calm - N/A   Scattered Clouds
3:33 AM 38.7 °F - 32.4 °F 78% 29.60 in 10.0 mi Calm Calm - N/A   Scattered Clouds
3:53 AM 38.5 °F 36.1 °F 32.5 °F 79% 29.60 in 10.0 mi SW 3.5 mph - N/A   Mostly Cloudy
4:13 AM 38.5 °F 36.1 °F 32.5 °F 79% 29.61 in 10.0 mi SSW 3.5 mph - N/A   Mostly Cloudy
4:33 AM 38.8 °F - 32.7 °F 79% 29.60 in 10.0 mi Calm Calm - N/A   Scattered Clouds
4:53 AM 38.8 °F 36.5 °F 32.5 °F 78% 29.61 in 10.0 mi SW 3.5 mph - N/A   Clear
5:13 AM 39.4 °F - 32.9 °F 78% 29.61 in 10.0 mi Calm Calm - N/A   Mostly Cloudy
5:33 AM 39.6 °F - 32.9 °F 77% 29.61 in 10.0 mi Calm Calm - N/A   Overcast
5:53 AM 37.6 °F - 32.4 °F 81% 29.61 in 10.0 mi Calm Calm - N/A   Overcast
6:13 AM 38.1 °F - 32.7 °F 81% 29.61 in 10.0 mi Calm Calm - N/A   Overcast
6:33 AM 35.1 °F - 32.2 °F 89% 29.62 in 10.0 mi Calm Calm - N/A   Scattered Clouds
6:53 AM 34.9 °F 32.0 °F 32.0 °F 89% 29.63 in 10.0 mi SW 3.5 mph - N/A   Mostly Cloudy
7:13 AM 36.9 °F - 32.5 °F 84% 29.63 in 10.0 mi Calm Calm - N/A   Mostly Cloudy
7:33 AM 37.0 °F - 32.2 °F 83% 29.62 in 10.0 mi Calm Calm - N/A   Clear
7:53 AM 34.0 °F - 31.8 °F 92% 29.63 in 10.0 mi Calm Calm - N/A   Clear
8:08 AM 33.1 °F - 31.8 °F 95% 29.63 in 7.0 mi Calm Calm - N/A   Clear
8:33 AM 33.4 °F - 32.0 °F 94% 29.64 in 7.0 mi Calm Calm - N/A   Clear
8:53 AM 33.1 °F - 32.0 °F 96% 29.64 in 10.0 mi Calm Calm - N/A   Clear
9:13 AM 34.9 °F - 32.9 °F 92% 29.64 in 10.0 mi Calm Calm - N/A   Scattered Clouds
9:33 AM 36.1 °F - 33.1 °F 89% 29.64 in 10.0 mi Calm Calm - N/A   Scattered Clouds
9:54 AM 40.1 °F - 32.5 °F 74% 29.65 in 10.0 mi Calm Calm - N/A   Clear
10:13 AM 44.8 °F 43.3 °F 32.2 °F 61% 29.65 in 10.0 mi NW 3.5 mph - N/A   Clear
10:33 AM 45.1 °F 41.4 °F 30.7 °F 57% 29.65 in 10.0 mi NNW 6.9 mph - N/A   Clear
10:53 AM 45.7 °F 42.7 °F 30.6 °F 56% 29.65 in 10.0 mi NNW 5.8 mph - N/A   Clear
11:13 AM 47.1 °F - 30.6 °F 53% 29.66 in 10.0 mi NW 4.6 mph - N/A   Clear
11:34 AM 47.8 °F - 29.7 °F 49% 29.65 in 10.0 mi Calm Calm - N/A   Clear
11:53 AM 48.7 °F - 30.0 °F 48% 29.66 in 10.0 mi Calm Calm - N/A   Clear
12:13 PM 48.0 °F - 30.6 °F 51% 29.67 in 10.0 mi Calm Calm - N/A   Scattered Clouds
12:34 PM 48.2 °F - 30.2 °F 50% 29.66 in 10.0 mi Calm Calm - N/A   Mostly Cloudy
12:53 PM 49.1 °F - 30.0 °F 48% 29.67 in 10.0 mi NNW 3.5 mph - N/A   Scattered Clouds
1:13 PM 49.1 °F - 30.0 °F 48% 29.66 in 10.0 mi Calm Calm - N/A   Clear
1:33 PM 47.8 °F - 30.9 °F 52% 29.67 in 10.0 mi SW 3.5 mph - N/A   Clear
1:53 PM 50.4 °F - 30.2 °F 46% 29.67 in 10.0 mi Calm Calm - N/A   Clear
2:13 PM 51.1 °F - 30.7 °F 46% 29.67 in 7.0 mi West 4.6 mph - N/A   Clear
2:33 PM 52.7 °F - 30.2 °F 42% 29.67 in 7.0 mi West 5.8 mph - N/A   Clear
2:53 PM 51.4 °F - 30.0 °F 44% 29.66 in 10.0 mi West 5.8 mph - N/A   Clear
3:13 PM 51.3 °F - 30.4 °F 45% 29.65 in 10.0 mi West 5.8 mph - N/A   Clear
3:33 PM 51.4 °F - 30.0 °F 44% 29.66 in 10.0 mi WNW 6.9 mph - N/A   Clear
3:53 PM 51.4 °F - 28.8 °F 42% 29.65 in 10.0 mi WNW 8.1 mph - N/A   Clear
4:13 PM 50.9 °F - 28.4 °F 42% 29.66 in 10.0 mi West 8.1 mph - N/A   Clear
4:33 PM 50.0 °F - 29.1 °F 45% 29.65 in 10.0 mi West 6.9 mph - N/A   Mostly Cloudy
4:53 PM 50.5 °F - 29.5 °F 44% 29.64 in 10.0 mi WNW 6.9 mph - N/A   Scattered Clouds
5:13 PM 50.5 °F - 30.0 °F 45% 29.66 in 7.0 mi West 5.8 mph - N/A   Clear
5:33 PM 49.1 °F - 30.0 °F 48% 29.66 in 10.0 mi WNW 6.9 mph - N/A   Scattered Clouds
5:53 PM 48.4 °F - 29.7 °F 48% 29.67 in 10.0 mi NW 8.1 mph - N/A   Overcast
6:13 PM 47.5 °F - 29.7 °F 50% 29.68 in 10.0 mi NE 8.1 mph - N/A   Overcast
6:33 PM 43.3 °F 40.7 °F 30.7 °F 61% 29.69 in 10.0 mi NE 4.6 mph - N/A   Overcast
6:53 PM 43.7 °F - 30.2 °F 59% 29.70 in 10.0 mi Calm Calm - N/A   Overcast
7:13 PM 41.7 °F 39.8 °F 30.2 °F 64% 29.70 in 10.0 mi ENE 3.5 mph - N/A   Overcast
7:33 PM 41.0 °F 39.0 °F 30.2 °F 65% 29.71 in 10.0 mi ENE 3.5 mph - N/A   Overcast
7:53 PM 41.7 °F 37.3 °F 30.4 °F 64% 29.74 in 10.0 mi NNE 6.9 mph - N/A   Mostly Cloudy
8:13 PM 40.3 °F 37.1 °F 30.9 °F 69% 29.75 in 10.0 mi NE 4.6 mph - N/A   Scattered Clouds
8:33 PM 39.4 °F 33.8 °F 30.7 °F 71% 29.76 in 10.0 mi NE 8.1 mph - N/A   Scattered Clouds
8:53 PM 38.5 °F 33.4 °F 30.7 °F 74% 29.76 in 10.0 mi ENE 6.9 mph - N/A   Clear
9:13 PM 37.4 °F 30.3 °F 30.4 °F 76% 29.77 in 10.0 mi ENE 10.4 mph - N/A   Clear
9:33 PM 36.5 °F 30.3 °F 30.4 °F 78% 29.78 in 10.0 mi ENE 8.1 mph - N/A   Scattered Clouds
9:53 PM 36.0 °F 29.6 °F 30.2 °F 80% 29.77 in 10.0 mi ENE 8.1 mph - N/A   Mostly Cloudy
10:13 PM 35.4 °F 26.8 °F 29.8 °F 80% 29.77 in 10.0 mi ENE 12.7 mph - N/A   Scattered Clouds
10:33 PM 35.2 °F 28.8 °F 29.7 °F 80% 29.78 in 10.0 mi NE 8.1 mph - N/A   Scattered Clouds
10:53 PM 34.9 °F 29.0 °F 29.3 °F 80% 29.78 in 10.0 mi NE 6.9 mph - N/A   Mostly Cloudy
11:13 PM 34.9 °F 29.0 °F 29.3 °F 80% 29.78 in 10.0 mi ENE 6.9 mph - N/A   Overcast
11:33 PM 34.9 °F 29.9 °F 29.5 °F 81% 29.78 in 10.0 mi ENE 5.8 mph - N/A   Overcast
11:53 PM 34.7 °F 30.6 °F 30.0 °F 83% 29.78 in 10.0 mi ENE 4.6 mph - N/A   Overcast